This is the latest recevied weather packets stored in our database for station/object IZ5RIE-13. If no packets are shown the sender has not sent any weather packets the latest 10 day(s).
| Time | Temp. | Humidity | Pressure | Rain* | Wind** | Luminosity | Snow |
|---|---|---|---|---|---|---|---|
| 1788031470 | 26.67° C | 100% | 1016.3 hPa | - | - | - | - |
| 1788030575 | 26.67° C | 100% | 1016.3 hPa | - | - | - | - |
| 1788029675 | 27.22° C | 100% | 1016.2 hPa | - | - | - | - |
| 1788028774 | 27.22° C | 100% | 1016.2 hPa | - | - | - | - |
| 1788027874 | 27.78° C | 100% | 1016 hPa | - | - | - | - |
| 1788026973 | 27.78° C | 100% | 1015.8 hPa | - | - | - | - |
| 1788026073 | 28.33° C | 100% | 1015.8 hPa | - | - | - | - |
| 1788025173 | 29.44° C | 100% | 1015.8 hPa | - | - | - | - |
| 1788024273 | 30.56° C | 100% | 1015.8 hPa | - | - | - | - |
| 1788023373 | 32.78° C | 85% | 1015.9 hPa | - | - | - | - |
| 1788022473 | 34.44° C | 71% | 1015.9 hPa | - | - | - | - |
| 1788021573 | 33.33° C | 73% | 1016 hPa | - | - | - | - |
| 1788020672 | 33.89° C | 63% | 1015.9 hPa | - | - | - | - |
| 1788019772 | 36.11° C | 52% | 1015.8 hPa | - | - | - | - |
| 1788018872 | 37.78° C | 51% | 1015.9 hPa | - | - | - | - |
| 1788017972 | 38.33° C | 48% | 1015.8 hPa | - | - | - | - |
| 1788017072 | 39.44° C | 45% | 1015.9 hPa | - | - | - | - |
| 1788016172 | 38.33° C | 46% | 1016.1 hPa | - | - | - | - |
| 1788015271 | 37.78° C | 48% | 1016.3 hPa | - | - | - | - |
| 1788014371 | 36.67° C | 53% | 1016.6 hPa | - | - | - | - |
| 1788013471 | 36.67° C | 50% | 1016.6 hPa | - | - | - | - |
| 1788011671 | 37.22° C | 52% | 1016.7 hPa | - | - | - | - |
| 1788010771 | 37.22° C | 55% | 1016.7 hPa | - | - | - | - |
| 1788009871 | 37.22° C | 57% | 1016.9 hPa | - | - | - | - |
| 1788008975 | 37.22° C | 60% | 1016.9 hPa | - | - | - | - |
* Rain since midnight (hover to see other rain measurements)
** Current wind speed in m/s (hover to see current wind gust speed)